EW6657 Weather Reports


time (UTC)temp
C
wind
direction
speed
KPH
gust
KPH
rain 1hr
cm
rain 24hr
cm
rain mn
cm
humidity
%
barometer
mb
20260510150205 25 262 3.2 9.7 0.00 0.86 0.00 94 1016.1
20260510145705 25 202 0.0 8.0 0.00 0.86 0.00 94 1016.0
20260510145205 24 269 1.6 4.8 0.00 0.86 0.00 96 1015.9
20260510144205 23 9 0.0 4.8 0.00 0.86 0.00 97 1016.0
20260510143205 22 9 0.0 0.0 0.00 0.86 0.00 96 1015.9
20260510142705 22 9 0.0 0.0 0.00 0.86 0.00 97 1016.0
20260510142205 22 9 0.0 0.0 0.00 0.86 0.00 96 1016.0
20260510141705 22 9 0.0 0.0 0.00 0.86 0.00 97 1016.0
20260510141204 22 14 0.0 1.6 0.00 0.86 0.00 97 1015.9
20260510140705 22 14 0.0 3.2 0.00 0.86 0.00 96 1016.0
20260510140205 22 14 1.6 3.2 0.00 0.86 0.00 97 1015.9
20260510135705 22 14 0.0 0.0 0.00 0.86 0.00 97 1015.8
20260510135205 22 15 0.0 0.0 0.00 0.86 0.00 97 1015.8
20260510134705 22 15 0.0 0.0 0.00 0.86 0.00 97 1015.7
20260510133705 22 14 0.0 3.2 0.00 0.86 0.00 97 1015.5
20260510133205 22 14 0.0 0.0 0.00 0.86 0.00 97 1015.7
20260510132705 22 14 1.6 3.2 0.00 0.86 0.00 97 1015.5
20260510132205 22 14 0.0 0.0 0.00 0.86 0.00 97 1015.6
20260510131204 21 14 0.0 0.0 0.00 0.86 0.00 97 1015.5
20260510130704 21 14 0.0 0.0 0.00 0.86 0.00 97 1015.4
20260510130205 21 14 0.0 0.0 0.00 0.86 0.00 97 1015.4
20260510125705 21 14 0.0 0.0 0.00 0.86 0.00 97 1015.4
20260510125204 21 14 0.0 0.0 0.00 0.86 0.00 97 1015.4
20260510124705 21 14 0.0 0.0 0.00 0.86 0.00 97 1015.4
20260510124205 21 14 0.0 0.0 0.00 0.86 0.00 97 1015.3
20260510123705 20 14 0.0 0.0 0.00 0.86 0.00 97 1015.2
20260510123205 20 14 0.0 0.0 0.00 0.86 0.00 97 1015.1
20260510122705 20 14 0.0 0.0 0.00 0.86 0.00 97 1015.1
20260510122205 20 14 0.0 0.0 0.00 0.86 0.00 97 1015.0
20260510121705 20 122 0.0 0.0 0.00 0.86 0.00 97 1014.9
20260510121205 20 122 0.0 1.6 0.00 0.86 0.00 96 1014.9
20260510120704 20 122 0.0 0.0 0.00 0.86 0.00 96 1014.9
20260510120205 20 122 0.0 0.0 0.00 0.86 0.00 97 1014.9
20260510115705 20 123 0.0 0.0 0.00 0.86 0.00 97 1014.7
20260510115204 20 123 0.0 0.0 0.00 0.86 0.00 96 1014.6
20260510114705 20 123 0.0 0.0 0.00 0.86 0.00 96 1014.5
20260510113205 19 148 0.0 0.0 0.00 0.86 0.00 96 1014.3
20260510112705 19 148 0.0 0.0 0.00 0.86 0.00 96 1014.3
20260510112206 19 148 0.0 0.0 0.00 0.86 0.00 96 1014.3
20260510111704 19 148 0.0 0.0 0.00 0.86 0.00 96 1014.3
20260510111205 19 148 0.0 0.0 0.00 0.86 0.00 96 1014.1
20260510110204 19 154 0.0 1.6 0.00 0.86 0.00 96 1014.0
20260510105704 19 154 0.0 1.6 0.00 0.86 0.00 96 1014.0
20260510105205 19 154 0.0 0.0 0.00 0.86 0.00 96 1013.8
20260510104705 19 154 0.0 0.0 0.00 0.86 0.00 96 1013.7
20260510104205 19 154 0.0 0.0 0.00 0.86 0.00 96 1013.4
20260510103711 19 154 0.0 0.0 0.00 0.86 0.00 96 1013.5
20260510103205 19 154 0.0 0.0 0.00 0.86 0.00 96 1013.5
20260510102705 19 154 0.0 0.0 0.00 0.86 0.00 96 1013.4
20260510102205 19 154 0.0 0.0 0.00 0.86 0.00 96 1013.3
20260510101705 19 154 0.0 0.0 0.00 0.86 0.00 96 1013.3
20260510101204 19 154 0.0 0.0 0.00 0.86 0.00 96 1013.1
20260510100710 19 154 0.0 0.0 0.00 0.86 0.00 96 1013.1
20260510100205 19 154 0.0 0.0 0.00 0.86 0.00 96 1012.9
20260510095704 19 154 0.0 0.0 0.00 0.86 0.00 96 1013.0
20260510095206 19 154 0.0 0.0 0.00 0.86 0.00 96 1013.0
20260510094705 19 154 0.0 0.0 0.00 0.86 0.00 96 1013.1
20260510094205 19 154 0.0 0.0 0.00 0.86 0.00 96 1013.0
20260510093710 19 154 0.0 0.0 0.00 0.86 0.00 96 1013.0
20260510092705 19 154 0.0 0.0 0.00 0.86 0.00 96 1012.9
20260510092206 19 154 0.0 0.0 0.00 0.86 0.00 96 1013.0
20260510091705 19 154 0.0 0.0 0.00 0.86 0.00 96 1012.9
20260510091205 19 154 0.0 0.0 0.00 0.86 0.00 96 1012.8
20260510090704 19 154 0.0 0.0 0.00 0.86 0.00 95 1012.7
20260510090205 19 154 0.0 0.0 0.00 0.86 0.00 95 1012.7
20260510085704 19 154 0.0 0.0 0.00 0.86 0.00 96 1012.6
20260510085205 19 154 0.0 0.0 0.00 0.86 0.00 96 1012.5
20260510084705 19 154 0.0 0.0 0.00 0.86 0.00 96 1012.5
20260510084204 19 154 0.0 0.0 0.00 0.86 0.00 96 1012.5
20260510083204 19 154 0.0 0.0 0.00 0.86 0.00 96 1012.4
20260510082705 19 154 0.0 0.0 0.00 0.86 0.00 96 1012.3
20260510082209 19 154 0.0 0.0 0.00 0.86 0.00 96 1012.2
20260510081704 19 154 0.0 0.0 0.00 0.86 0.00 96 1012.3
20260510081205 19 154 0.0 0.0 0.00 0.86 0.00 96 1012.3
20260510080704 19 154 0.0 0.0 0.00 0.86 0.00 96 1012.3
20260510080205 19 154 0.0 0.0 0.00 0.86 0.00 96 1012.2
20260510075704 19 154 0.0 0.0 0.00 0.86 0.00 96 1012.1
20260510075206 19 154 0.0 0.0 0.00 0.86 0.00 96 1012.1
20260510074705 19 154 0.0 0.0 0.00 0.86 0.00 96 1012.0
20260510074204 19 154 0.0 0.0 0.00 0.86 0.00 96 1012.0
20260510073705 19 154 0.0 0.0 0.00 0.86 0.00 96 1012.1
20260510073204 19 154 0.0 0.0 0.00 0.86 0.00 96 1012.1
20260510072704 19 154 0.0 0.0 0.00 0.86 0.00 96 1012.2
20260510071704 19 154 0.0 0.0 0.00 0.86 0.00 96 1012.2
20260510071205 19 154 0.0 0.0 0.00 0.86 0.00 95 1012.2
20260510070705 19 154 0.0 0.0 0.00 0.86 0.00 95 1012.2
20260510070204 19 155 0.0 0.0 0.00 0.86 0.00 96 1012.2
20260510065705 19 155 0.0 0.0 0.00 0.86 0.00 96 1012.3
20260510065205 19 155 0.0 0.0 0.00 0.86 0.00 96 1012.4
20260510064704 19 155 0.0 0.0 0.00 0.86 0.00 95 1012.4
20260510064205 19 155 0.0 0.0 0.00 0.86 0.00 95 1012.4
20260510063705 19 155 0.0 0.0 0.00 0.86 0.00 95 1012.3
20260510063204 20 155 0.0 0.0 0.00 0.86 0.00 96 1012.5
20260510062704 19 155 0.0 0.0 0.00 0.86 0.00 95 1012.5
20260510062205 20 155 0.0 0.0 0.00 0.86 0.00 95 1012.4
20260510061705 20 155 0.0 0.0 0.00 0.86 0.00 95 1012.4
20260510061204 20 155 0.0 0.0 0.00 0.86 0.00 95 1012.5
20260510060704 20 155 0.0 0.0 0.00 0.86 0.00 96 1012.5
20260510060204 20 159 0.0 0.0 0.00 0.86 0.00 96 1012.7
20260510055704 20 159 0.0 0.0 0.00 0.86 0.00 95 1012.7
20260510054205 20 159 0.0 0.0 0.00 0.86 0.00 96 1012.8
20260510053704 20 159 0.0 0.0 0.00 0.86 0.00 96 1012.8
20260510053204 20 159 0.0 0.0 0.00 0.86 0.00 96 1012.9
20260510052704 20 159 0.0 1.6 0.00 0.86 0.00 96 1012.8
20260510052204 20 159 0.0 3.2 0.00 0.86 0.00 96 1012.9
20260510051704 20 159 0.0 3.2 0.00 0.86 0.00 96 1012.9
20260510051204 20 159 0.0 3.2 0.00 0.86 0.00 96 1012.9
20260510050705 20 159 0.0 3.2 0.00 0.86 0.00 95 1013.0
20260510050204 20 159 1.6 4.8 0.00 0.86 0.00 96 1013.0
20260510045719 20 158 3.2 4.8 0.00 0.86 0.00 95 1013.1
20260510045218 20 142 1.6 3.2 0.00 0.86 0.00 95 1013.1
20260510044719 20 140 1.6 3.2 0.00 0.86 0.00 95 1013.1
20260510044219 20 136 3.2 4.8 0.00 0.86 0.00 95 1013.2
20260510043720 20 146 0.0 0.0 0.00 0.86 0.00 95 1013.3
20260510043219 20 146 0.0 0.0 0.00 0.86 0.00 95 1013.4
20260510042718 20 146 0.0 0.0 0.00 0.86 0.00 95 1013.6
20260510042219 20 146 0.0 0.0 0.00 0.86 0.00 95 1013.7
20260510041719 20 146 0.0 4.8 0.00 0.86 0.00 95 1013.8
20260510041219 20 146 1.6 4.8 0.00 0.86 0.00 95 1013.8
20260510040719 20 146 3.2 4.8 0.00 0.86 0.00 95 1013.9
20260510040219 20 146 3.2 4.8 0.00 0.86 0.00 95 1013.9
20260510035719 20 146 1.6 4.8 0.00 0.86 0.86 95 1013.9
20260510034718 20 145 1.6 4.8 0.00 0.86 0.86 95 1013.9
20260510033719 20 355 0.0 0.0 0.00 0.86 0.86 95 1013.9
20260510033219 20 355 0.0 0.0 0.00 0.86 0.86 95 1013.9
20260510032719 20 355 0.0 0.0 0.00 0.86 0.86 95 1013.9
20260510031718 20 355 0.0 0.0 0.00 0.86 0.86 95 1013.8
20260510030718 20 355 0.0 0.0 0.00 0.86 0.86 95 1013.8
20260510030219 20 355 0.0 0.0 0.00 0.86 0.86 95 1013.8
20260510025719 20 355 3.2 4.8 0.00 0.86 0.86 95 1013.8
20260510025219 20 355 0.0 1.6 0.00 0.86 0.86 95 1013.7
20260510024718 20 355 0.0 3.2 0.00 0.86 0.86 95 1013.7
20260510024219 20 355 0.0 3.2 0.00 0.86 0.86 95 1013.7
20260510023719 20 355 1.6 3.2 0.00 0.86 0.86 95 1013.7
20260510022719 20 355 0.0 0.0 0.00 0.86 0.86 95 1013.6
20260510021718 20 355 0.0 0.0 0.00 0.86 0.86 95 1013.5
20260510021219 20 355 0.0 0.0 0.00 0.86 0.86 95 1013.3
20260510020219 20 355 0.0 0.0 0.00 0.86 0.86 95 1013.3
20260510015718 20 355 0.0 0.0 0.00 0.86 0.86 95 1013.3
20260510014218 20 355 0.0 0.0 0.00 0.86 0.86 95 1012.7
20260510013718 20 355 0.0 0.0 0.00 0.86 0.86 94 1012.7
20260510013218 20 355 0.0 0.0 0.00 0.86 0.86 94 1012.7
20260510012718 20 355 0.0 0.0 0.00 0.86 0.86 94 1012.9
20260510012219 20 355 0.0 0.0 0.00 0.86 0.86 94 1012.7
20260510011719 20 355 0.0 0.0 0.00 0.86 0.86 94 1012.7
20260510011220 20 355 0.0 0.0 0.00 0.89 0.86 94 1012.4
20260510010719 20 355 0.0 0.0 0.00 0.91 0.86 94 1012.5
20260510010218 20 355 0.0 0.0 0.00 0.91 0.86 94 1012.5
20260510005719 20 355 0.0 0.0 0.00 0.91 0.86 94 1012.6
20260510005218 20 355 0.0 0.0 0.00 0.94 0.86 94 1012.5
20260510003719 20 355 0.0 3.2 0.00 0.97 0.86 94 1012.2
20260510003218 20 355 0.0 3.2 0.00 0.97 0.86 94 1012.3
20260510002718 20 355 1.6 4.8 0.00 0.97 0.86 94 1012.3
20260510002218 20 355 1.6 4.8 0.00 0.97 0.86 94 1012.3
20260510001718 20 355 0.0 3.2 0.00 0.97 0.86 94 1012.3
20260510000219 20 355 1.6 4.8 0.03 0.97 0.86 94 1012.4
20260509235718 20 355 1.6 4.8 0.03 0.97 0.86 94 1012.4
20260509235218 20 355 0.0 0.0 0.05 0.97 0.86 94 1012.5
20260509234718 20 355 0.0 4.8 0.10 0.97 0.86 94 1012.5
20260509234219 20 355 1.6 3.2 0.13 0.99 0.86 94 1012.4
20260509233218 20 355 3.2 4.8 0.15 1.02 0.86 93 1012.3
20260509232719 20 355 1.6 4.8 0.18 1.12 0.86 93 1012.5
20260509232218 20 355 0.0 0.0 0.20 1.73 0.86 93 1012.6
20260509231719 20 355 0.0 0.0 0.25 1.93 0.86 93 1012.7
20260509225718 21 355 0.0 0.0 0.48 1.91 0.84 93 1012.9
20260509225219 21 355 0.0 0.0 0.46 1.88 0.81 92 1013.0
20260509224718 21 355 0.0 0.0 0.41 1.83 0.76 92 1013.1
20260509224219 21 355 0.0 0.0 0.38 1.80 0.74 92 1013.1
20260509223718 21 355 0.0 0.0 0.36 1.78 0.71 92 1013.2
20260509223218 21 355 0.0 0.0 0.36 1.78 0.71 92 1013.3
20260509222218 21 355 0.0 0.0 0.30 1.73 0.66 92 1013.4
20260509221219 21 355 0.0 0.0 0.10 1.52 0.46 92 1013.3
20260509220718 21 355 0.0 0.0 0.05 1.47 0.41 92 1013.1
20260509220218 21 355 0.0 0.0 0.03 1.45 0.38 92 1013.1
20260509215718 21 355 0.0 0.0 0.00 1.42 0.36 92 1013.1
20260509215218 21 355 0.0 0.0 0.00 1.42 0.36 92 1012.9
20260509214718 21 355 0.0 0.0 0.03 1.42 0.36 91 1012.9
20260509214218 21 355 0.0 0.0 0.05 1.42 0.36 91 1012.7
20260509213718 21 355 0.0 0.0 0.05 1.42 0.36 91 1012.7
20260509213217 21 355 0.0 0.0 0.08 1.42 0.36 91 1012.7
20260509212718 21 355 0.0 0.0 0.08 1.42 0.36 91 1012.7
20260509212218 21 355 0.0 0.0 0.08 1.42 0.36 91 1012.6
20260509211218 21 355 0.0 0.0 0.08 1.42 0.36 90 1012.4
20260509210718 21 355 0.0 0.0 0.08 1.42 0.36 90 1012.3
20260509210218 21 355 0.0 0.0 0.08 1.42 0.36 90 1012.3
20260509205218 21 355 0.0 0.0 0.08 1.42 0.36 90 1012.3
20260509204719 21 355 0.0 1.6 0.08 1.40 0.33 90 1012.2
20260509204218 21 339 0.0 3.2 0.05 1.37 0.30 90 1012.2
20260509203718 21 338 0.0 0.0 0.05 1.37 0.30 89 1012.3
20260509203218 21 338 1.6 3.2 0.03 1.35 0.28 89 1012.3
20260509202718 21 319 0.0 4.8 0.03 1.35 0.28 89 1012.3
20260509202218 21 309 1.6 4.8 0.03 1.35 0.28 88 1012.3
20260509201718 21 328 3.2 4.8 0.03 1.35 0.28 88 1012.3
20260509201219 21 325 3.2 9.7 0.03 1.35 0.28 88 1012.2
20260509200718 22 358 4.8 12.9 0.03 1.35 0.28 87 1012.3
20260509200218 22 17 3.2 11.3 0.03 1.35 0.28 86 1012.3
20260509195718 22 11 1.6 4.8 0.05 1.37 0.28 86 1012.4
20260509195218 22 12 3.2 11.3 0.05 1.40 0.28 85 1012.2
20260509194718 22 342 4.8 19.3 0.03 1.37 0.25 84 1012.3
20260509194218 23 354 4.8 12.9 0.03 1.37 0.25 84 1012.4
20260509193718 23 0 6.4 16.1 0.03 1.37 0.25 84 1012.3
20260509193218 24 4 4.8 22.5 0.03 1.37 0.25 85 1012.3
20260509192718 25 306 3.2 14.5 0.03 1.37 0.25 88 1012.1
20260509192217 25 282 1.6 4.8 0.03 1.37 0.25 89 1012.1
20260509191218 25 261 3.2 8.0 0.03 1.37 0.25 88 1012.3
20260509190718 25 221 1.6 9.7 0.03 1.37 0.25 88 1012.4
20260509190218 25 231 3.2 11.3 0.03 1.37 0.25 88 1012.4
20260509185218 25 313 0.0 4.8 0.00 1.35 0.23 89 1012.4
20260509183717 25 289 3.2 9.7 0.10 1.35 0.23 88 1012.5
20260509183218 25 230 3.2 8.0 0.23 1.35 0.23 88 1012.5
20260509182718 25 211 3.2 8.0 0.23 1.35 0.23 89 1012.4
20260509182217 24 254 0.0 0.0 0.23 1.35 0.23 89 1012.3
20260509180718 24 251 0.0 0.0 0.23 1.35 0.23 87 1012.5
20260509180218 24 252 0.0 3.2 0.23 1.35 0.23 86 1012.6
20260509175718 25 252 1.6 4.8 0.23 1.35 0.23 85 1012.7
20260509175218 25 252 1.6 4.8 0.23 1.35 0.23 85 1012.7
20260509174218 26 217 4.8 9.7 0.23 1.35 0.23 82 1012.9
20260509173718 26 287 1.6 4.8 0.13 1.24 0.13 81 1012.6
20260509173218 26 263 0.0 3.2 0.00 1.12 0.00 80 1012.7
20260509172718 26 229 0.0 4.8 0.00 1.12 0.00 79 1012.6
20260509172218 26 231 3.2 8.0 0.00 1.12 0.00 78 1012.7
20260509171717 26 231 3.2 8.0 0.00 1.12 0.00 78 1012.6
20260509171218 26 296 0.0 0.0 0.00 1.12 0.00 79 1012.6
20260509170717 26 240 1.6 11.3 0.00 1.12 0.00 78 1012.8
20260509170217 26 236 4.8 11.3 0.00 1.12 0.00 77 1012.8
20260509165718 26 248 4.8 9.7 0.00 1.12 0.00 77 1012.9
20260509164717 26 250 3.2 11.3 0.00 1.12 0.00 77 1012.9
20260509164218 26 247 4.8 9.7 0.00 1.12 0.00 76 1012.7
20260509163718 26 226 6.4 11.3 0.00 1.12 0.00 76 1012.6
20260509163218 26 241 6.4 12.9 0.00 1.12 0.00 76 1012.8
20260509162718 26 265 3.2 9.7 0.00 1.12 0.00 77 1012.8
20260509162217 26 236 4.8 9.7 0.00 1.12 0.00 77 1012.9
20260509160218 26 202 3.2 11.3 0.00 1.12 0.00 80 1013.1
20260509155718 26 213 3.2 8.0 0.00 1.12 0.00 81 1013.0
20260509155218 26 225 0.0 3.2 0.00 1.12 0.00 81 1013.0
20260509154218 25 242 3.2 8.0 0.00 1.12 0.00 82 1012.8
20260509153718 25 240 3.2 8.0 0.00 1.12 0.00 81 1012.7
20260509153217 25 253 4.8 4.8 0.00 1.12 0.00 82 1012.3
20260509152717 25 216 1.6 4.8 0.00 1.12 0.00 82 1012.2
20260509152218 25 135 3.2 4.8 0.00 1.12 0.00 83 1012.5
20260509151717 25 170 1.6 4.8 0.00 1.12 0.00 84 1012.5
20260509151218 25 261 1.6 4.8 0.00 1.12 0.00 84 1012.6
20260509150718 25 261 3.2 4.8 0.00 1.12 0.00 83 1012.6